sat.trackr.live / text

‹ back to catalog

STARLINK-30454

NORAD 57915 · 2023-147C

PAYLOAD ACTIVE UNKNOWN

§ Identity

Operator
Country
US
Launch date
2023-09-24
Launch site
AFETR
Launch vehicle
Mass (kg)
RCS (m²)

Purposes: comms

External: N2YO · Heavens-Above · Gunter

§ Orbital elements

Epoch: 2026-09-20T04:07:30.381888Z

Period
94.27 min
Inclination
43.0032°
Eccentricity
0.0000878
Mean motion
15.27575384 rev/d
Perigee alt
482.5 km
Apogee alt
483.7 km
Semi-major
6,861.2 km
B*
-1.7431e-6
RAAN
306.6982°
Arg perigee
256.1976°
Mean anomaly
103.8778°
Rev number
16,634

§ Raw data

STARLINK-304541 57915U 23147C   26263.17187942 -.00000310  00000+0 -17431-5 0  99982 57915  43.0032 306.6982 0000878 256.1976 103.8778 15.27575384166345

JSON: /api/v1/satellites/57915 · /tle

For live sub-satellite position, see the globe view (requires WebGL).

§ Visibility from observer

Set your observer location to see the next 7 days of passes ≥ 10°. The values pass through the URL so the page stays shareable.

No JS? Fill the form by hand. The geolocation button needs JavaScript.